Location: Unspecified
(0.0000°N, 0.0000°E)
Time: 01:51:29
(UTC+00:00)

USA 198 - Visible Passes

Search period start: 19 March 2019 00:00
Search period end: 29 March 2019 00:00
Orbit: 1265 x 39090 km, 62.8° (Epoch: 28 January)

Date Brightness Start Highest point End Pass type
(mag) Time Alt. Az. Time Alt. Az. Time Alt. Az.
19 Mar 7.6 20:21:27 10° SSW 20:40:52 85° ESE 07:49:13 10° SE visible
20 Mar 7.6 20:17:03 10° SSW 20:36:29 85° ESE 07:44:49 10° SE visible
21 Mar 7.6 20:12:39 10° SSW 20:32:04 85° ESE 07:40:25 10° SE visible
22 Mar 7.6 20:08:14 10° SSW 20:27:40 85° ESE 07:36:01 10° SE visible
23 Mar 7.6 20:03:50 10° SSW 20:23:16 85° ESE 07:31:37 10° SE visible
24 Mar 7.6 19:59:26 10° SSW 20:18:52 85° ESE 07:27:13 10° SE visible
25 Mar 7.6 19:55:02 10° SSW 20:14:27 85° ESE 07:22:49 10° SE visible
26 Mar 7.6 19:50:38 10° SSW 20:10:03 85° ESE 07:18:25 10° SE visible
27 Mar 7.6 19:46:15 10° SSW 20:05:39 85° ESE 07:14:01 10° SE visible
